Location: Hannover
(52.3723°N, 9.7339°E)
Time: 19:40:58

N. Korean satellite - Visible Passes

Search period start: 19 March 2018 00:00
Search period end: 29 March 2018 01:00
Orbit: 460 x 512 km, 97.2° (Epoch: 18 March)

Date Brightness Start Highest point End Pass type
(mag) Time Alt. Az. Time Alt. Az. Time Alt. Az.
19 Mar 9.9 19:10:30 10° SW 19:13:01 17° W 19:15:33 10° NW visible
22 Mar 10.8 05:45:07 10° ENE 05:45:56 11° E 05:46:42 10° E visible
22 Mar 10.6 19:34:33 10° W 19:35:18 10° W 19:36:02 10° WNW visible
23 Mar 9.9 19:08:36 10° SW 19:11:12 18° W 19:13:50 10° NW visible
26 Mar 10.5 20:32:22 10° WSW 20:33:26 11° W 20:34:30 10° WNW visible
